星链-30304 (STARLINK-30304 )

导读 | 豆包AI

STARLINK-30304是美国太空探索技术公司(SpaceX)星链(Starlink)星座的成员,于2023年9月9日发射升空,归属星链低轨互联网卫星星座。星链星座旨在为全球提供覆盖偏远地区的高速低延迟宽带互联网服务,该卫星运行于近地轨道,搭载通信载荷,具备自主避撞能力,服役寿命终结后会主动离轨再入大气层焚毁。

基本信息
目录编号:
57808
目录名称:
STARLINK-30304
国际标识:
2023-138A
轨道中心:
EARTH
卫星名称:
星链-30304
卫星全名:
星链-30304 (STARLINK-30304 )
卫星状态:
已陨落 最后检测时间 2025-10-07
发射日期:
2023-09-09 UTC
国别 :
美国 (US)
星等 :
--
轨道信息
数据来源 国际轨道数据
星历时间: 2025-10-07T11:27:51+0800
轨道信息已过期205天
半长轴: 6594.901km
偏心率: 0.0017926
轨道倾角: 42.972°
近地点辐角 220.407°
升交点赤经 179.950°
平近点角 139.549°
近地点: 204.943km
远地点: 228.589km
周期: 88.833分钟
每日圈数: 16.210277
详细信息
固有亮度:
5
最大亮度:
0.3
卫星平台:
Starlink v2.0 mini
覆盖范围:
全球
运营商:
太空探索技术公司
运营商所在国:
美国
制造商(研发单位):
太空探索技术公司
制造商所在国:
美国
使用方式:
暂无
卫星简介
星链(Starlink)计划是由太空探索技术公司(SpaceX)提出的一个巨型低轨卫星互联网星座项目,计划在2019年至2024年间在太空搭建由约1.2万颗卫星组成的“星链”网络,其中1584颗将部署在地球上空550千米处的近地轨道,并从2020年开始工作。该卫星仍在工作。